Regional Weather Roundup
Issued by NWS Goodland, KS

Home | Current Version | Previous Version | Text Only | Print | Product List | Glossary On
Versions: 1 2 3 4 5 6 7 8 9 10 11 12 13 14 15 16 17 18 19 20 21 22 23 24 25 26 27 28 29 30 31 32 33 34 35 36 37 38 39 40 41 42 43 44 45 46 47 48 49 50
000
ASUS43 KGLD 260659
RWRGLD

GOODLAND FORECAST AREA HOURLY WEATHER ROUNDUP
NATIONAL WEATHER SERVICE GOODLAND KS
100 AM MDT THU MAY 26 2016

...OFFICIAL OBSERVATIONS...

CITY           SKY/WX    TMP DP  RH WIND       PRES   REMARKS
GOODLAND KS    PTCLDY    49  46  90 E7        29.92F
HILL CITY KS   CLEAR     55  51  86 SE6       29.89R
IMPERIAL NEB   CLOUDY    53  49  86 NW3       29.92F
MCCOOK NEB     CLEAR     53  48  83 W3        29.88S
AKRON CO       CLOUDY    54  41  61 NE10      29.98S
BURLINGTON CO  CLOUDY    52  44  74 N5        29.95R
LIMON CO       CLEAR     48  42  80 NE13      29.98S
$$

...UNOFFICIAL OBSERVATIONS...

CITY           SKY/WX    TMP DP  RH WIND       PRES   REMARKS
GOVE KS          N/A     55  32  41 MISG        N/A
LENORA KS        N/A     56  32  40 MISG        N/A
SHARON SPRINGS   N/A     57  53  85 E12         N/A
KIT CARSON CO    N/A     53  44  72 MISG        N/A
YUMA CO          N/A     52  48  87 CALM        N/A
$$




USA.gov is the U.S. government's official web portal to all federal, state and local government web resources and services.